CW0060 Weather Reports


Display with metric or nautical units.
time (UTC)temp
F
wind
direction
speed
MPH
gust
MPH
rain 1hr
in
rain 24hr
in
rain mn
in
humidity
%
barometer
mb
20260906201206 62 53 2.0 3.0 0.00 0.00 0.00 54 1024.1
20260906200705 62 60 2.0 3.0 0.00 0.00 0.00 53 1024.2
20260906195206 63 124 1.0 3.0 0.00 0.00 0.00 52 1023.8
20260906194705 63 89 1.0 3.0 0.00 0.00 0.00 51 1023.8
20260906194205 63 178 1.0 3.0 0.00 0.00 0.00 50 1023.8
20260906193705 64 89 1.0 3.0 0.00 0.00 0.00 50 1023.9
20260906193205 64 98 1.0 3.0 0.00 0.00 0.00 49 1023.9
20260906192705 64 98 1.0 3.0 0.00 0.00 0.00 49 1023.9
20260906192205 64 1 1.0 3.0 0.00 0.00 0.00 48 1023.8
20260906191705 64 89 1.0 3.0 0.00 0.00 0.00 48 1023.8
20260906191205 65 46 1.0 2.0 0.00 0.00 0.00 48 1023.9
20260906190706 65 63 0.0 2.0 0.00 0.00 0.00 47 1024.0
20260906190205 65 89 0.0 2.0 0.00 0.00 0.00 47 1024.0
20260906185705 65 1 0.0 2.0 0.00 0.00 0.00 47 1024.1
20260906185205 66 117 1.0 1.0 0.00 0.00 0.00 46 1024.1
20260906184704 66 1 0.0 3.0 0.00 0.00 0.00 47 1024.1
20260906184205 66 89 0.0 3.0 0.00 0.00 0.00 47 1024.1
20260906183705 67 314 0.0 3.0 0.00 0.00 0.00 47 1024.1
20260906183204 67 89 0.0 2.0 0.00 0.00 0.00 48 1024.0
20260906182706 67 46 0.0 1.0 0.00 0.00 0.00 47 1023.9
20260906181206 68 340 0.0 2.0 0.00 0.00 0.00 45 1023.9
20260906180705 69 46 1.0 3.0 0.00 0.00 0.00 44 1023.9
20260906180205 69 28 1.0 4.0 0.00 0.00 0.00 44 1023.9
20260906175705 69 40 2.0 4.0 0.00 0.00 0.00 44 1024.0
20260906175205 69 28 2.0 4.0 0.00 0.00 0.00 44 1023.9
20260906174705 70 37 2.0 3.0 0.00 0.00 0.00 43 1023.9
20260906174206 70 11 1.0 3.0 0.00 0.00 0.00 43 1023.9
20260906173705 70 72 1.0 4.0 0.00 0.00 0.00 43 1024.0
20260906173205 70 23 1.0 4.0 0.00 0.00 0.00 43 1024.1
20260906172705 70 1 1.0 4.0 0.00 0.00 0.00 43 1024.0
20260906171705 70 35 1.0 3.0 0.00 0.00 0.00 43 1024.0
20260906171205 71 56 1.0 4.0 0.00 0.00 0.00 42 1024.0
20260906170207 72 63 2.0 6.0 0.00 0.00 0.00 39 1024.2
20260906165706 72 124 2.0 6.0 0.00 0.00 0.00 39 1024.4
20260906165206 72 89 1.0 4.0 0.00 0.00 0.00 40 1024.4
20260906164706 72 72 1.0 8.0 0.00 0.00 0.00 39 1024.3
20260906164206 73 1 2.0 8.0 0.00 0.00 0.00 37 1024.1
20260906163706 74 46 2.0 8.0 0.00 0.00 0.00 37 1024.1
20260906163206 74 124 2.0 6.0 0.00 0.00 0.00 37 1024.0
20260906162731 75 114 2.0 6.0 0.00 0.00 0.00 36 1024.0
20260906162206 75 51 2.0 7.0 0.00 0.00 0.00 36 1024.0
20260906161205 75 178 3.0 7.0 0.00 0.00 0.00 36 1024.1
20260906160705 76 27 3.0 7.0 0.00 0.00 0.00 35 1024.3
20260906155705 76 23 3.0 8.0 0.00 0.00 0.00 34 1024.3
20260906154705 76 95 3.0 7.0 0.00 0.00 0.00 34 1024.4
20260906154206 76 67 3.0 7.0 0.00 0.00 0.00 34 1024.5
20260906153705 76 95 3.0 7.0 0.00 0.00 0.00 34 1024.4
20260906153205 76 100 2.0 5.0 0.00 0.00 0.00 36 1024.6
20260906152706 74 25 2.0 5.0 0.00 0.00 0.00 37 1024.5
20260906151705 74 222 3.0 8.0 0.00 0.00 0.00 38 1024.5
20260906150705 74 72 3.0 8.0 0.00 0.00 0.00 37 1024.6
20260906150206 74 51 3.0 5.0 0.00 0.00 0.00 38 1024.6
20260906145706 74 124 3.0 5.0 0.00 0.00 0.00 36 1024.6
20260906145206 74 28 3.0 7.0 0.00 0.00 0.00 37 1024.6
20260906144705 74 311 3.0 7.0 0.00 0.00 0.00 36 1024.7
20260906144205 75 314 3.0 9.0 0.00 0.00 0.00 35 1024.7
20260906143705 76 108 4.0 9.0 0.00 0.00 0.00 34 1024.7
20260906143205 78 170 4.0 9.0 0.00 0.00 0.00 33 1024.7
20260906142705 77 109 3.0 6.0 0.00 0.00 0.00 35 1024.7
20260906142205 76 117 2.0 7.0 0.00 0.00 0.00 35 1024.8
20260906141705 76 219 2.0 9.0 0.00 0.00 0.00 34 1024.7
20260906141205 76 41 3.0 9.0 0.00 0.00 0.00 34 1024.8
20260906140705 78 178 4.0 9.0 0.00 0.00 0.00 34 1024.9
20260906140205 78 102 4.0 7.0 0.00 0.00 0.00 35 1024.8
20260906135705 76 136 3.0 7.0 0.00 0.00 0.00 35 1024.9
20260906135205 77 23 3.0 8.0 0.00 0.00 0.00 34 1024.9
20260906134705 78 115 4.0 8.0 0.00 0.00 0.00 32 1024.9
20260906134206 77 37 4.0 8.0 0.00 0.00 0.00 33 1024.9
20260906133706 77 114 3.0 8.0 0.00 0.00 0.00 34 1025.1
20260906133205 77 9 3.0 8.0 0.00 0.00 0.00 34 1025.2
20260906132705 75 74 3.0 6.0 0.00 0.00 0.00 36 1025.4
20260906132206 74 63 3.0 6.0 0.00 0.00 0.00 36 1025.3
20260906130705 76 222 3.0 9.0 0.00 0.00 0.00 36 1025.4
20260906130205 75 28 3.0 9.0 0.00 0.00 0.00 37 1025.6
20260906125705 75 46 4.0 9.0 0.00 0.00 0.00 38 1025.7
20260906125205 74 56 4.0 8.0 0.00 0.00 0.00 39 1025.8
20260906124707 73 131 4.0 7.0 0.00 0.00 0.00 40 1025.7
20260906123705 73 212 3.0 7.0 0.00 0.00 0.00 41 1025.9
20260906123205 72 214 2.0 7.0 0.00 0.00 0.00 40 1026.0
20260906122705 72 89 3.0 8.0 0.00 0.00 0.00 40 1026.2
20260906122206 72 214 3.0 8.0 0.00 0.00 0.00 42 1026.2
20260906121705 71 28 3.0 8.0 0.00 0.00 0.00 43 1026.4
20260906121205 72 239 3.0 7.0 0.00 0.00 0.00 41 1026.3
20260906120705 72 146 3.0 7.0 0.00 0.00 0.00 41 1026.4
20260906120205 72 253 3.0 8.0 0.00 0.00 0.00 42 1026.4
20260906115707 72 226 3.0 10.0 0.00 0.00 0.00 41 1026.3
20260906115206 74 1 4.0 10.0 0.00 0.00 0.00 40 1026.3
20260906114705 73 107 4.0 10.0 0.00 0.00 0.00 44 1026.3
20260906114206 71 137 3.0 9.0 0.00 0.00 0.00 44 1026.3
20260906113705 71 63 4.0 9.0 0.00 0.00 0.00 45 1026.3
20260906113205 70 269 3.0 8.0 0.00 0.00 0.00 43 1026.4
20260906112705 71 205 4.0 8.0 0.00 0.00 0.00 43 1026.6
20260906112206 73 126 4.0 10.0 0.00 0.00 0.00 45 1026.6
20260906111705 71 56 4.0 10.0 0.00 0.00 0.00 46 1026.6
20260906110705 72 105 5.0 9.0 0.00 0.00 0.00 44 1026.7
20260906110205 70 101 3.0 6.0 0.00 0.00 0.00 50 1026.7
20260906105706 68 222 3.0 10.0 0.00 0.00 0.00 49 1026.7
20260906105205 69 238 4.0 10.0 0.00 0.00 0.00 47 1026.8
20260906104705 71 137 4.0 10.0 0.00 0.00 0.00 47 1026.9
20260906103705 71 65 4.0 8.0 0.00 0.00 0.00 46 1027.0
20260906102707 69 184 3.0 6.0 0.00 0.00 0.00 49 1027.0
20260906101705 67 331 3.0 7.0 0.00 0.00 0.00 50 1027.0
20260906101206 68 205 3.0 7.0 0.00 0.00 0.00 49 1027.2
20260906100706 68 151 3.0 7.0 0.00 0.00 0.00 48 1027.2
20260906100207 68 23 3.0 9.0 0.00 0.00 0.00 50 1027.2
20260906095706 67 72 4.0 9.0 0.00 0.00 0.00 50 1027.3
20260906094705 67 110 3.0 7.0 0.00 0.00 0.00 52 1027.3
20260906094205 67 207 3.0 10.0 0.00 0.00 0.00 52 1027.4
20260906093706 67 105 3.0 10.0 0.00 0.00 0.00 55 1027.4
20260906092206 66 13 3.0 8.0 0.00 0.00 0.00 55 1027.4
20260906091705 65 95 3.0 8.0 0.00 0.00 0.00 58 1027.4
20260906091205 64 108 2.0 9.0 0.00 0.00 0.00 60 1027.4
20260906090705 64 129 3.0 9.0 0.00 0.00 0.00 59 1027.4
20260906090205 64 269 3.0 9.0 0.00 0.00 0.00 59 1027.5
20260906085705 64 98 3.0 8.0 0.00 0.00 0.00 61 1027.4
20260906085205 64 8 4.0 8.0 0.00 0.00 0.00 61 1027.6
20260906084705 63 98 4.0 7.0 0.00 0.00 0.00 62 1027.6
20260906084225 63 98 3.0 6.0 0.00 0.00 0.00 63 1027.6
20260906083725 62 15 2.0 9.0 0.00 0.00 0.00 66 1027.6
20260906083205 62 117 3.0 9.0 0.00 0.00 0.00 67 1027.5
20260906082705 61 138 3.0 9.0 0.00 0.00 0.00 68 1027.5
20260906081705 61 35 3.0 6.0 0.00 0.00 0.00 69 1027.5
20260906081206 60 28 2.0 6.0 0.00 0.00 0.00 69 1027.5
20260906080725 60 50 2.0 5.0 0.00 0.00 0.00 71 1027.4
20260906080205 59 15 2.0 5.0 0.00 0.00 0.00 73 1027.4
20260906075705 58 35 1.0 3.0 0.00 0.00 0.00 76 1027.5
20260906075206 57 222 1.0 3.0 0.00 0.00 0.00 79 1027.4
20260906074206 56 269 1.0 4.0 0.00 0.00 0.00 83 1027.4
20260906073705 54 145 2.0 4.0 0.00 0.00 0.00 86 1027.4
20260906073205 53 173 1.0 4.0 0.00 0.00 0.00 90 1027.4
20260906072205 50 151 2.0 4.0 0.00 0.00 0.00 90 1027.6
20260906071705 50 212 1.0 4.0 0.00 0.00 0.00 90 1027.6
20260906071205 50 217 1.0 4.0 0.00 0.00 0.00 89 1027.5
20260906070705 50 269 0.0 3.0 0.00 0.00 0.00 89 1027.6
20260906070231 50 269 1.0 3.0 0.00 0.00 0.00 89 1027.5
20260906065204 49 205 2.0 4.0 0.00 0.00 0.00 89 1027.6
20260906064705 49 197 2.0 5.0 0.00 0.00 0.00 89 1027.7
20260906064205 49 250 2.0 5.0 0.00 0.00 0.00 89 1027.7
20260906063705 49 236 3.0 5.0 0.00 0.00 0.00 89 1027.7
20260906063205 49 240 3.0 5.0 0.00 0.00 0.00 89 1027.7
20260906062206 47 257 2.0 3.0 0.00 0.00 0.00 89 1027.5
20260906061705 47 205 2.0 2.0 0.00 0.00 0.00 88 1027.4
20260906060705 47 1 1.0 3.0 0.00 0.00 0.00 87 1027.3
20260906060205 47 314 1.0 3.0 0.00 0.00 0.00 87 1027.1
20260906055705 47 15 2.0 3.0 0.00 0.00 0.00 87 1027.0
20260906055205 47 63 2.0 3.0 0.00 0.00 0.00 87 1027.0
20260906054705 46 21 1.0 3.0 0.00 0.00 0.00 87 1027.1
20260906054205 46 35 1.0 3.0 0.00 0.00 0.00 86 1027.1
20260906053706 46 72 1.0 3.0 0.00 0.00 0.00 86 1027.1
20260906053205 46 108 1.0 3.0 0.00 0.00 0.00 86 1027.1
20260906052707 46 79 1.0 2.0 0.00 0.00 0.00 86 1027.1
20260906051705 47 178 0.0 2.0 0.00 0.00 0.00 86 1027.2
20260906051206 47 269 0.0 2.0 0.00 0.00 0.00 86 1027.1
20260906050705 47 20 1.0 2.0 0.00 0.00 0.00 86 1027.2
20260906050206 47 35 1.0 2.0 0.00 0.00 0.00 85 1027.1
20260906045705 47 46 0.0 1.0 0.00 0.00 0.00 85 1027.1
20260906045205 47 124 0.0 2.0 0.00 0.00 0.00 85 1027.1
20260906044205 47 46 1.0 2.0 0.00 0.00 0.00 85 1027.1
20260906043205 47 1 0.0 1.0 0.00 0.00 0.00 85 1027.2
20260906042705 47 46 0.0 4.0 0.00 0.00 0.00 85 1027.1
20260906042205 47 46 1.0 4.0 0.00 0.00 0.00 84 1026.9
20260906041705 47 205 2.0 4.0 0.00 0.00 0.00 84 1026.9
20260906041233 47 72 3.0 4.0 0.00 0.00 0.00 84 1026.8
20260906040705 48 51 2.0 3.0 0.00 0.00 0.00 84 1026.9
20260906040205 48 58 1.0 3.0 0.00 0.00 0.00 84 1027.0
20260906035705 48 89 2.0 3.0 0.00 0.00 0.00 84 1027.0
20260906035206 48 81 2.0 3.0 0.00 0.00 0.00 84 1027.0
20260906034706 48 68 2.0 3.0 0.00 0.00 0.00 84 1027.0
20260906033706 48 89 1.0 2.0 0.00 0.00 0.00 83 1027.0
20260906033205 48 89 1.0 2.0 0.00 0.00 0.00 83 1027.0
20260906032206 49 99 1.0 2.0 0.00 0.00 0.00 83 1026.8
20260906031705 49 32 0.0 3.0 0.00 0.00 0.00 83 1026.8
20260906031208 49 89 1.0 3.0 0.00 0.00 0.00 83 1026.7
20260906030705 49 178 1.0 3.0 0.00 0.00 0.00 83 1026.4
20260906030205 49 35 0.0 3.0 0.00 0.00 0.00 83 1026.4
20260906025705 49 178 1.0 3.0 0.00 0.00 0.00 83 1026.7
20260906025206 49 46 1.0 3.0 0.00 0.00 0.00 82 1026.5
20260906024705 49 1 0.0 2.0 0.00 0.00 0.00 82 1026.5
20260906024205 49 240 0.0 2.0 0.00 0.00 0.00 82 1026.6
20260906023205 50 269 1.0 2.0 0.00 0.00 0.00 82 1026.5
20260906022225 50 46 1.0 2.0 0.00 0.00 0.00 82 1026.4
20260906021705 50 344 1.0 2.0 0.00 0.00 0.00 81 1026.3
20260906021228 50 72 0.0 2.0 0.00 0.00 0.00 81 1026.4
20260906020705 50 205 1.0 2.0 0.00 0.00 0.00 81 1026.4
20260906020205 50 89 1.0 2.0 0.00 0.00 0.00 81 1026.3
20260906015206 50 46 1.0 2.0 0.00 0.00 0.00 81 1026.3
20260906013706 51 89 1.0 2.0 0.00 0.00 0.00 80 1026.2
20260906013205 51 58 0.0 1.0 0.00 0.00 0.00 80 1026.3
20260906012206 51 46 0.0 2.0 0.00 0.00 0.00 80 1026.3
20260906011705 51 314 0.0 2.0 0.00 0.00 0.00 80 1026.3
20260906011205 51 178 1.0 2.0 0.00 0.00 0.00 79 1026.3
20260906010721 51 63 1.0 2.0 0.00 0.00 0.00 79 1026.3
20260906010224 52 40 1.0 3.0 0.00 0.00 0.00 79 1026.2
20260906005705 52 72 1.0 3.0 0.00 0.00 0.00 79 1026.1
20260906005205 52 89 2.0 3.0 0.00 0.00 0.00 79 1026.2
20260906004705 52 89 2.0 3.0 0.00 0.00 0.00 79 1026.1
20260906004206 52 51 1.0 1.0 0.00 0.00 0.00 78 1026.1
20260906003705 52 108 0.0 1.0 0.00 0.00 0.00 78 1026.0
20260906003204 52 46 0.0 3.0 0.00 0.00 0.00 78 1026.0
20260906002705 53 46 0.0 3.0 0.00 0.00 0.00 78 1026.0
20260906002207 53 135 2.0 3.0 0.00 0.00 0.00 78 1026.0
20260906001705 53 46 2.0 3.0 0.00 0.00 0.00 77 1026.0
20260906000705 53 104 1.0 3.0 0.00 0.00 0.00 77 1026.1
20260906000205 53 104 2.0 3.0 0.00 0.00 0.00 77 1026.1
20260905235705 53 20 2.0 2.0 0.00 0.00 0.00 77 1026.1
20260905235205 53 11 1.0 2.0 0.00 0.00 0.00 76 1026.1
20260905234705 53 72 1.0 2.0 0.00 0.00 0.00 76 1026.1
20260905233705 54 53 1.0 2.0 0.00 0.00 0.00 75 1026.1
20260905232206 54 108 1.0 2.0 0.00 0.00 0.00 74 1026.0
20260905231705 54 46 1.0 2.0 0.00 0.00 0.00 73 1026.1
20260905231224 54 63 0.0 2.0 0.00 0.00 0.00 73 1026.0
20260905225705 55 250 1.0 1.0 0.00 0.00 0.00 72 1025.8
20260905224705 55 269 0.0 1.0 0.00 0.00 0.00 71 1025.8
20260905224207 55 46 0.0 2.0 0.00 0.00 0.00 71 1025.8
20260905223705 56 89 0.0 3.0 0.00 0.00 0.00 71 1025.8
20260905222706 56 46 2.0 3.0 0.00 0.00 0.00 70 1025.6
20260905222205 56 46 1.0 2.0 0.00 0.00 0.00 70 1025.6
20260905221705 56 1 1.0 2.0 0.00 0.00 0.00 69 1025.5
20260905221206 56 56 0.0 1.0 0.00 0.00 0.00 69 1025.4
20260905220705 57 20 0.0 2.0 0.00 0.00 0.00 69 1025.4
20260905220205 57 46 0.0 2.0 0.00 0.00 0.00 69 1025.3
20260905215705 57 89 1.0 3.0 0.00 0.00 0.00 69 1025.3
20260905215206 57 63 1.0 3.0 0.00 0.00 0.00 68 1025.3
20260905214704 57 63 2.0 3.0 0.00 0.00 0.00 68 1025.2
20260905214206 57 72 1.0 3.0 0.00 0.00 0.00 67 1025.2
20260905213705 58 63 1.0 3.0 0.00 0.00 0.00 67 1025.2
20260905213205 58 89 1.0 3.0 0.00 0.00 0.00 67 1024.9
20260905212705 58 102 1.0 2.0 0.00 0.00 0.00 66 1025.1
20260905212206 58 28 1.0 3.0 0.00 0.00 0.00 66 1025.1
20260905211704 58 104 1.0 3.0 0.00 0.00 0.00 65 1024.9
20260905211206 59 46 1.0 3.0 0.00 0.00 0.00 65 1024.9
20260905210705 59 35 1.0 3.0 0.00 0.00 0.00 65 1024.8
20260905210205 59 46 1.0 3.0 0.00 0.00 0.00 64 1024.9
20260905205706 59 331 1.0 3.0 0.00 0.00 0.00 64 1024.8
20260905204705 60 349 1.0 4.0 0.00 0.00 0.00 63 1024.8
20260905204207 60 89 1.0 5.0 0.00 0.00 0.00 62 1024.8
20260905203705 60 314 2.0 5.0 0.00 0.00 0.00 62 1024.8
20260905203205 60 1 1.0 5.0 0.00 0.00 0.00 61 1024.7
20260905202206 61 160 1.0 4.0 0.00 0.00 0.00 60 1024.7